SCP
0 0 0 0 0 0 0 0 0 0 0 0 0 0 0 0 0 0 0 0 0 0 0 0 0 0 0 0 0 0 0 0 0 0 0 0 0 0 0 0 0 0 0 0 0 0 0 0 0
0 0 0 0 0 0 0 0 0 0 0 0 0 0 0 0 0 0 0 0 0 0 0 0 0 0 0 0 0 0 0 0 0 0 0 0 0 0 0 0 0 0 0 0 0 0 0 0 0
0 0 0 0 0 0 0 0 0 0 0 0 0 0 0 0 0 0 0 0 0 0 0 0 0 0 0 0 0 0 0 0 0 0 0 0 0 0 0 0 0 0 0 0 0 0 0 0 0
0 0 0 0 0 0 0 0 0 0 0 0 0 0 0 0 0 0 0 0 0 0 0 0 0 0 0 0 0 0 0 0 0 0 0 0 0 0 0 0 0 0 0 0 0 0 0 0 0
0 0 0 0 0 0 0 0 0 0 0 0 0 0 0 0 0 0 0 0 0 0 0 0 0 0 0 0 0 0 0 0 0 0 0 0 0 0 0 0 0 0 0 0 0 0 0 0 0
0 0 0 0 0 0 0 0 0 0 0 0 0 0 0 0 0 0 0 0 0 0 0 0 0 0 0 0 0 0 0 0 0 0 0 0 0 0 0 0 0 0 0 0 0 0 0 0 0
0 0 0 0 0 0 0 0 0 0 0 0 0 0 0 0 0 0 0 0 0 0 0 0 0 0 0 0 0 0 0 0 0 0 0 0 0 0 0 0 0 0 0 0 0 0 0 0 0
0 0 0 0 0 0 0 0 0 0 0 0 0 0 0 0 0 0 0 0 0 0 0 0 0 0 0 0 0 0 0 0 0 0 0 0 0 0 0 0 0 0 0 0 0 0 0 0 0
0 0 0 0 0 0 0 0 0 0 0 0 0 0 0 0 0 0 0 0 0 0 0 0 0 0 0 0 0 0 0 0 0 0 0 0 0 0 0 0 0 0 0 0 0 0 0 0 0
0 0 0 0 0 0 0 0 0 0 0 0 0 0 0 0 0 0 0 0 0 0 0 0 0 0 0 0 0 0 0 0 0 0 0 0 0 0 0 0 0 0 0 0 0 0 0 0 0
0 0 0 0 0 0 0 0 0 0 0 0 0 0 0 0 0 0 0 0 0 0 0 0 0 0 0 0 0 0 0 0 0 0 0 0 0 0 0 0 0 0 0 0 0 0 0 0 0
0 0 0 0 0 0 0 0 0 0 0 0 0 0 0 0 0 0 0 0 0 0 0 0 0 0 0 0 0 0 0 0 0 0 0 0 0 0 0 0 0 0 0 0 0 0 0 0 0
0 0 0 0 0 0 0 0 0 0 0 0 0 0 0 0 0 0 0 0 0 0 0 0 0 0 0 0 0 0 0 0 0 0 0 0 0 0 0 0 0 0 0 0 0 0 0 0 0
0 0 0 0 0 0 0 0 0 0 0 0 0 0 0 0 0 0 0 0 0 0 0 0 0 0 0 0 0 0 0 0 0 0 0 0 0 0 0 0 0 0 0 0 0 0 0 0 0
0 0 0 0 0 0 0 0 0 0 0 0 0 0 0 0 0 0 0 0 0 0 0 0 0 0 0 0 0 0 0 0 0 0 0 0 0 0 0 0 0 0 0 0 0 0 0 0 0
0 0 0 0 0 0 0 0 0 0 0 0 0 0 0 0 0 0 0 0 0 0 0 0 0 0 0 0 0 0 0 0 0 0 0 0 0 0 0 0 0 0 0 0 0 0 0 0 0
0 0 0 0 0 0 0 0 0 0 0 0 0 0 0 0 0 0 0 0 0 0 0 0 0 0 0 0 0 0 0 0 0 0 0 0 0 0 0 0 0 0 0 0 0 0 0 0 0
0 0 0 0 0 0 0 0 0 0 0 0 0 0 0 0 0 0 0 0 0 0 0 0 0 0 0 0 0 0 0 0 0 0 0 0 0 0 0 0 0 0 0 0 0 0 0 0 0
0 0 0 0 0 0 0 0 0 0 0 0 0 0 0 0 0 0 0 0 0 0 0 0 0 0 0 0 0 0 0 0 0 0 0 0 0 0 0 0 0 0 0 0 0 0 0 0 0
0 0 0 0 0 0 0 0 0 0 0 0 0 0 0 0 0 0 0 0 0 0 0 0 0 0 0 0 0 0 0 0 0 0 0 0 0 0 0 0 0 0 0 0 0 0 0 0 0
0 0 0 0 0 0 0 0 0 0 0 0 0 0 0 0 0 0 0 0 0 0 0 0 0 0 0 0 0 0 0 0 0 0 0 0 0 0 0 0 0 0 0 0 0 0 0 0 0
0 0 0 0 0 0 0 0 0 0 0 0 0 0 0 0 0 0 0 0 0 0 0 0 0 1 1 0 0 0 0 0 0 0 0 0 0 0 0 0 0 0 0 0 0 0 0 0 0
0 0 0 0 0 0 0 0 0 0 0 0 0 0 0 0 0 0 0 0 0 0 0 0 0 1 1 1 0 0 0 0 0 0 0 0 0 0 0 0 0 0 0 0 0 0 0 0 0
0 0 0 0 0 0 0 0 0 0 0 0 0 0 0 0 0 0 0 0 0 0 0 0 0 1 1 1 1 0 0 0 0 0 0 0 0 0 0 0 0 0 0 0 0 0 0 0 0
0 0 0 0 0 0 0 0 0 0 0 0 0 0 0 0 0 0 0 0 0 0 0 0 0 1 1 1 1 1 1 1 0 0 0 0 0 0 0 0 0 0 0 0 0 0 0 0 0
0 0 0 0 0 0 0 0 0 0 0 0 0 0 0 0 0 0 0 0 0 0 0 0 1 1 1 1 1 1 1 1 1 1 0 0 0 0 0 0 0 0 0 0 0 0 0 0 0
0 0 0 0 0 0 0 0 0 0 0 0 0 0 0 0 0 0 0 0 0 0 0 0 1 1 1 1 1 1 1 1 1 1 1 0 0 0 0 0 0 0 0 0 0 0 0 0 0
0 0 0 0 0 0 0 0 0 0 0 0 0 0 0 0 0 0 0 0 0 0 0 0 1 1 1 1 1 1 1 1 1 1 1 1 1 0 0 0 0 0 0 0 0 0 0 0 0
0 0 0 0 0 0 0 0 0 0 0 0 0 0 0 0 0 0 0 0 0 0 0 0 1 1 1 1 1 1 1 1 1 1 1 1 1 0 0 0 0 0 0 0 0 0 0 0 0
0 0 0 0 0 0 0 0 0 0 0 0 0 0 0 0 0 0 0 0 0 0 0 0 1 1 1 1 1 1 1 1 1 1 1 1 1 0 0 0 0 0 0 0 0 0 0 0 0
Wind_Speed
11 9 6 5 3 8 14 12 10 9 9 10 10 9 11 12 10 9 6 6 6 7 8 10 10 11 11 11 12 12 12 13 13 13 13 13 14 14 14 15 15 14 14 14 15 15 15 15 14
8 6 6 3 6 11 13 11 12 12 9 8 10 11 12 12 10 8 6 6 7 8 8 11 11 11 11 12 12 12 12 13 14 14 14 14 14 14 14 15 15 14 14 15 15 15 15 14 14
6 7 4 4 12 12 12 11 11 11 8 7 8 9 9 8 8 6 8 7 8 9 9 12 10 11 11 11 12 12 13 14 14 14 13 14 14 14 14 14 14 14 14 15 15 14 14 13 13
5 5 1 9 17 15 12 10 9 10 10 8 9 10 9 8 6 8 8 7 9 9 10 12 10 11 11 12 12 13 13 14 14 14 14 14 14 14 14 15 14 14 14 14 13 13 13 12 12
5 1 8 14 16 13 11 9 8 9 9 10 10 13 11 9 10 10 8 7 9 9 10 12 11 11 11 12 12 13 13 14 14 14 14 14 14 14 14 14 13 13 12 12 12 12 12 11 11
3 2 9 14 14 12 10 9 9 12 12 11 11 12 10 8 9 8 8 7 8 9 10 11 11 11 11 12 12 12 13 13 13 13 13 13 13 13 13 13 12 12 12 12 11 11 11 10 10
2 6 12 14 13 12 9 7 9 10 10 9 7 10 9 8 7 7 7 7 8 8 8 8 9 10 10 11 11 12 12 12 12 13 13 13 12 12 12 11 11 11 10 10 10 10 9 9 8
1 4 12 12 12 13 10 8 8 9 10 8 5 8 9 9 8 8 8 7 7 7 7 7 7 7 8 10 11 10 10 11 11 12 11 11 11 12 11 11 10 9 9 8 8 8 8 8 7
2 5 11 11 11 12 10 10 9 8 10 8 7 10 13 12 9 8 8 7 7 6 6 6 7 6 6 8 10 9 9 9 9 10 9 6 6 9 8 12 10 8 8 7 7 7 7 6 8
1 8 13 9 10 12 10 9 9 8 10 10 11 12 13 11 9 8 7 7 7 6 6 5 6 6 6 6 6 5 6 6 5 5 5 5 5 4 7 10 8 8 7 7 6 5 7 7 6
6 10 11 9 10 10 10 9 7 8 9 10 12 14 12 10 8 7 6 6 7 6 6 6 5 3 4 4 4 3 3 4 5 6 4 4 3 4 4 4 6 6 7 5 7 6 2 2 2
8 9 9 10 9 9 9 9 8 7 9 10 12 13 12 10 8 7 6 6 6 5 5 5 5 4 3 3 3 3 3 3 3 4 3 3 2 2 3 1 3 3 2 2 1 2 2 2 1
9 10 10 10 9 9 9 9 9 9 10 11 12 11 10 9 7 6 6 6 5 5 4 5 3 3 3 3 1 3 2 2 3 2 3 2 2 2 2 2 1 1 2 2 1 1 2 1 1
9 10 10 9 10 8 8 8 7 9 11 12 12 11 9 8 7 6 6 5 4 4 5 5 4 3 2 2 1 1 2 2 2 2 3 1 1 2 1 2 1 1 1 2 1 1 1 0 1
9 10 10 8 8 7 7 8 7 10 11 12 11 9 8 7 6 6 5 5 4 4 4 5 4 4 3 2 2 2 1 2 2 2 2 1 1 2 1 1 2 1 1 2 1 1 0 1 1
8 8 8 8 6 6 6 7 10 11 11 11 10 9 8 7 6 5 5 5 4 4 4 4 3 4 3 2 1 1 1 1 1 1 2 1 1 1 1 0 1 1 1 1 2 1 0 0 1
9 7 7 9 6 5 5 5 10 11 11 10 10 9 8 8 7 6 6 6 5 5 5 4 3 4 3 3 2 2 1 0 0 1 1 1 1 0 1 0 1 1 1 1 1 1 0 1 0
8 7 7 7 7 6 5 4 9 11 11 10 10 9 9 8 8 7 6 6 6 6 5 5 5 4 4 3 2 2 1 1 1 1 0 0 1 1 1 1 1 2 1 1 0 0 1 1 1
4 5 5 5 5 6 5 4 7 11 11 10 10 9 9 8 7 7 7 6 6 6 6 6 5 5 4 3 3 2 2 1 1 1 1 1 1 1 1 2 0 2 1 1 1 2 2 2 1
7 7 7 6 5 5 4 4 5 9 11 10 9 9 9 9 8 8 8 8 7 7 7 7 6 6 6 4 2 2 1 1 1 0 1 1 1 1 2 1 2 1 0 1 1 2 2 2 2
8 7 6 5 6 6 5 6 7 8 9 9 9 9 9 9 9 9 8 8 8 8 8 6 6 6 5 5 4 3 2 2 2 1 1 1 1 1 2 1 2 1 2 1 2 3 3 3 2
8 5 5 6 7 5 6 4 7 8 9 11 11 10 10 10 9 8 9 9 8 8 8 7 7 6 6 6 5 4 3 2 1 1 1 0 1 1 1 2 1 2 2 1 3 1 3 4 3
4 4 5 7 7 6 6 7 5 8 8 10 11 11 10 10 9 9 8 8 8 8 7 7 7 6 6 5 5 5 4 3 2 1 1 1 1 2 2 1 1 2 2 1 2 2 3 3 3
7 7 6 7 8 8 6 8 4 5 6 7 9 11 10 10 10 8 8 7 7 7 7 7 7 6 6 6 5 5 4 3 2 2 1 2 1 1 1 1 1 1 1 1 2 2 2 3 3
11 9 7 9 8 7 5 7 4 2 3 4 6 9 10 10 10 9 9 8 7 7 7 6 7 7 7 7 6 5 5 4 4 3 2 2 1 1 0 0 0 1 1 1 1 1 2 2 3
13 13 9 7 7 6 7 7 3 3 3 3 5 8 9 10 10 9 9 8 8 8 7 7 7 7 6 6 6 5 5 4 3 2 2 1 1 0 1 0 0 1 1 1 1 1 2 1 2
12 12 10 9 7 7 6 5 5 5 5 5 6 8 9 10 10 9 9 8 8 8 8 7 7 6 6 6 6 5 4 3 2 2 2 1 1 1 1 1 0 0 0 1 2 1 2 2 2
8 9 8 9 9 10 8 9 6 7 7 6 7 8 9 9 10 9 8 8 7 7 7 7 7 6 6 6 5 5 5 4 3 2 2 1 1 1 1 1 1 0 0 1 1 1 1 1 1
9 11 9 9 9 10 9 6 3 5 6 7 7 7 9 10 10 9 8 8 8 7 7 7 7 7 6 6 6 5 5 4 4 3 2 2 2 2 2 1 1 1 1 1 1 2 2 2 3
9 10 11 10 9 9 10 3 5 3 4 5 5 6 7 8 9 9 9 9 8 8 8 8 7 7 7 6 6 6 5 4 4 3 3 3 3 2 2 2 2 2 2 2 2 2 3 3 3
Wind_Direction
174 184 212 233 175 74 66 64 64 69 63 57 58 59 60 44 39 67 74 69 73 75 81 86 76 77 79 81 85 87 88 90 93 96 95 97 100 103 107 110 110 109 109 109 110 113 111 111 111
172 191 227 234 71 77 67 63 65 64 79 81 69 68 70 63 57 82 87 76 77 76 78 77 78 78 79 81 85 88 89 92 95 95 95 97 100 103 107 107 108 108 108 109 109 111 112 110 110
184 228 266 64 60 65 75 71 78 79 73 74 77 61 55 62 64 72 85 93 84 79 81 80 74 77 79 82 86 89 92 92 94 94 96 99 101 100 103 105 105 105 107 108 110 111 111 112 113
219 215 152 76 74 67 75 83 91 93 76 70 85 80 70 52 62 86 97 92 87 84 83 83 76 77 79 83 86 89 90 92 94 95 96 97 98 99 99 101 101 102 103 106 109 110 112 113 114
240 170 94 83 77 75 77 79 79 81 79 83 86 91 82 68 84 94 98 91 87 86 87 89 79 78 81 86 87 90 92 93 94 94 96 95 97 99 99 99 100 101 104 107 108 108 111 114 115
224 112 85 85 86 86 85 86 86 88 93 93 96 95 85 93 95 96 94 87 83 84 88 95 88 80 84 87 87 88 93 93 93 94 95 95 96 97 98 98 99 100 101 103 106 109 112 115 116
40 74 85 91 96 92 86 86 86 93 92 86 95 97 105 109 103 101 98 94 85 84 89 96 107 103 94 90 88 89 93 94 93 94 96 97 98 98 99 99 99 100 101 103 106 110 113 115 120
348 98 93 91 92 92 102 98 89 92 90 97 94 102 120 126 124 115 105 97 90 89 91 96 88 96 111 109 98 92 94 96 97 97 98 105 112 113 117 117 102 102 104 107 111 113 116 118 124
233 95 87 86 92 105 118 113 99 94 105 96 84 91 112 127 130 124 119 114 104 94 90 94 101 105 103 103 111 115 112 109 118 114 119 144 123 116 126 93 101 105 106 109 115 121 129 142 146
95 78 79 80 93 111 117 112 118 125 114 110 108 105 119 134 135 128 124 120 112 109 107 97 97 105 99 101 114 118 111 111 104 99 110 105 94 91 98 113 113 112 116 127 128 147 176 199 154
76 81 91 96 101 112 115 111 119 122 114 123 130 132 137 139 137 134 122 113 114 120 116 112 102 77 91 104 109 98 99 110 117 109 109 103 114 118 117 129 138 142 155 147 148 181 166 122 95
98 90 96 103 112 114 111 116 110 91 91 117 131 137 142 147 146 139 130 126 128 129 121 113 116 112 84 74 95 111 110 112 102 111 119 109 96 94 93 104 101 127 126 110 115 104 97 80 98
109 104 104 111 118 113 117 110 104 100 107 124 133 141 147 148 143 138 137 138 136 140 135 122 120 114 115 102 77 89 89 92 98 97 96 97 116 98 93 87 79 89 99 136 128 91 87 103 140
113 116 118 120 120 126 125 120 120 117 130 137 145 151 155 151 150 147 148 149 152 154 145 141 153 146 141 142 135 114 102 107 95 100 90 68 72 76 91 146 122 96 82 53 40 86 93 79 93
136 133 127 127 133 138 148 132 123 133 147 149 155 155 156 159 162 164 159 167 164 156 147 156 165 164 167 170 177 153 141 130 100 97 114 121 103 99 176 132 163 129 123 133 160 89 173 186 172
169 171 147 139 151 164 216 125 136 152 162 160 162 162 168 171 179 174 168 176 177 170 165 176 177 162 169 172 195 176 128 97 108 121 122 117 84 156 239 172 145 141 184 179 159 198 201 204 197
192 187 153 145 170 174 216 129 142 167 174 170 172 174 179 178 187 185 187 185 185 186 181 185 188 179 180 177 185 187 151 110 148 117 100 105 145 180 248 215 87 209 204 218 232 126 210 213 224
182 181 169 161 166 189 205 152 149 174 185 182 181 181 186 189 189 188 192 191 188 189 190 191 187 186 186 187 183 188 170 185 199 147 97 257 229 233 277 217 191 260 230 225 274 249 230 247 226
192 193 172 148 151 202 209 198 170 177 192 192 191 190 192 195 188 186 190 194 193 191 191 195 200 184 190 192 203 198 187 197 199 187 139 228 254 250 266 293 170 264 265 278 251 245 220 234 220
196 194 175 148 163 218 218 219 182 185 200 201 198 198 198 192 188 188 192 194 197 196 196 197 200 196 198 189 199 216 231 232 204 276 79 276 271 273 245 283 278 239 235 225 256 257 264 247 227
203 209 192 168 169 206 232 206 182 183 199 201 204 202 200 195 193 189 191 196 197 197 198 198 197 194 199 192 195 191 190 219 199 195 190 255 278 284 311 300 297 295 259 223 256 257 257 262 257
202 208 206 194 207 194 230 230 162 178 190 198 201 200 198 192 190 188 187 193 197 197 192 191 189 191 191 193 203 207 218 226 221 227 173 222 268 280 277 268 265 270 274 247 252 240 272 267 261
199 169 202 214 228 233 205 254 159 168 194 196 197 198 195 189 186 184 185 185 189 190 189 184 182 186 190 198 198 211 224 227 218 208 167 247 247 270 280 261 263 263 272 289 297 298 274 272 278
153 162 178 218 234 232 226 248 217 172 203 196 188 190 188 182 179 178 177 174 178 178 180 179 175 182 185 194 200 210 215 221 228 234 214 216 214 229 254 255 275 269 288 286 274 278 269 289 300
196 200 203 209 217 226 202 240 241 151 181 199 185 180 180 179 177 176 175 173 174 174 175 177 178 183 186 190 198 201 207 210 213 228 214 237 238 221 130 311 265 277 278 279 286 276 303 293 285
209 223 233 234 226 206 191 232 213 157 164 188 181 175 174 175 175 176 174 174 173 173 175 176 178 183 185 188 193 199 206 215 204 202 236 225 254 280 63 227 224 284 297 303 308 291 285 297 291
207 227 247 249 252 250 206 210 204 182 190 184 174 171 174 174 172 174 173 172 171 171 173 177 175 177 182 186 185 187 196 207 192 179 203 213 209 176 157 180 178 297 324 331 304 322 323 326 315
244 220 223 237 241 241 225 218 211 191 197 193 187 180 175 172 169 169 168 167 165 165 167 171 171 171 175 178 184 173 175 174 173 183 166 169 169 140 150 163 151 123 60 20 339 333 11 5 7
198 212 230 234 248 251 241 222 183 198 199 202 196 183 173 173 170 167 164 161 162 163 162 163 165 164 164 168 168 167 162 157 162 164 162 159 153 151 151 140 116 98 84 55 40 24 29 28 27
219 221 219 228 227 247 263 228 118 171 190 197 187 172 167 170 166 164 162 161 161 161 161 160 162 161 159 158 158 158 153 152 156 152 149 149 145 139 130 129 123 113 95 77 61 53 47 41 38